{"data":{"norad_id":56889,"intl_designator":"2023-083P","name":"STARLINK-6169","alt_names":[],"object_type":"PAYLOAD","status":"ACTIVE","operator":null,"country":"US","launch_date":"2023-06-12","launch_site_code":"AFETR","launch_vehicle":null,"mission":null,"orbit_class":"UNKNOWN","rcs_meters":null,"size_class":null,"mass_kg":null,"dimensions":null,"purposes":["comms"],"wikipedia_slug":null,"has_3d_model":false,"image_url":null,"decayed_at":null,"tle_current":{"epoch":"2026-05-24T23:52:16.255776Z","epoch_age_seconds":79007,"freshness":"FRESH","line1":"1 56889U 23083P   26144.99463259  .00001818  00000+0  75574-4 0  9995","line2":"2 56889  43.0028  13.9676 0001365 274.1020  85.9676 15.27586703163294","mean_motion":15.27586703,"eccentricity":0.0001365,"inclination_deg":43.0028,"raan_deg":13.9676,"arg_perigee_deg":274.102,"mean_anomaly_deg":85.9676,"bstar":7.5574e-5,"rev_number":16329,"period_min":94.266335074272,"perigee_km":482.09247575725,"apogee_km":483.96557408206,"semimajor_km":6861.1660249197,"source":"CELESTRAK","updated_at":"2026-05-25T13:38:18.169607Z"}}}